Weather in Pak Chong

Thailand     14°45′07″N   101°21′26″E
temp.,
°C
wind,
m/s
gust,
m/s
humid.,
%
clouds,
%
prec.,
mm/h
press.,
hPa
HPBL,
m
27 september, mon
mon2701:00+23sse1190100 3.4 100911
04:00+22sse1190100 0.0 100811
07:00+23ese1189100 0.0 100938
10:00+25ene118482 0.0 1011190
13:00+28w117995 4.8 1008572
16:00+27wnw118494 5.8 1007356
19:00+24ese0191100 8.1 100811
22:00+23s2398100 10.1 1011112
28 september, tue
tue2801:00+23ese2396100 13.4 101068
04:00+23ese3394100 0.5 100976
07:00+23ese2595100 0.7 1010169
10:00+25e1186100 0.3 1012136
13:00+27nne117788 0.3 1009605
16:00+28nne117394 0.1 1006641
19:00+24e229196 3.4 100815
22:00+24se119152 2.8 101113
29 september, wed
wed2901:00+23ese009026 3.8 101011
04:00+23se11915 0.0 100811
07:00+24ese11895 0.1 101047
10:00+29nne127435 0.1 1010717
13:00+30nnw126769 2.1 10071096
16:00+29w117597 3.8 1005534
19:00+25ssw1186100 5.4 100811
22:00+25sse118683 0.0 100911
30 september, thu
thu3001:00+24ssw11875 0.0 100811
04:00+24s11885 0.0 100811
07:00+25ssw11890 0.0 101048
10:00+29wnw11760 0.2 1010570
13:00+31nnw226722 1.0 10071206
16:00+29w117596 4.4 1006242
19:00+26s1184100 6.9 100811
22:00+25sse118672 0.3 100911
1 october, fri
fri101:00+24s118899 0.3 100911
04:00+23s119226 0.6 100811
07:00+24s11895 0.6 101054
10:00+28wsw22796 2.2 1011439
13:00+29wsw33725 4.3 1008932
16:00+29wsw457690 0.9 1006882
19:00+25s22905 1.9 100818
22:00+24s22905 0.0 101013